Find Kosmos-2527

NORAD ID: 43508 Int'l Des: 2018-053 Owner: VVKOV/IACG Country: RU Constellation: GLONASS operational
MEOCIRCULAR

リアルタイム位置

3D地球を読み込み中...

Kosmos-2527について

説明を読み込み中...

次回通過

Passes for default location (London). Set your location on the main map for personalized predictions.

高度履歴

Loading altitude history...

軌道要素

1 43508U 18053A 26123.97401244 -.00000014 00000-0 00000+0 0 9997
2 43508 65.5550 75.3806 0008409 247.6879 112.1948 2.13102108 61338
Epoch: May 3, 2026 • Age: 31 hours

現在のステータス

高度 19132.2 km
速度 3.96 km/s
衛星直下点 -62.77°S, 4.67°E
打ち上げ日 Jun 16, 2018
運用期間 7.8 years
タイプ other

技術仕様

分類 Payload
質量 1450.00 kg
乾燥質量 1200.00 kg
総質量 1450.00 kg
長さ 4.00 m
直径 1.50 m
スパン 7.80 m
形状 Cyl + Ant + 2 Pan
製造者 RESH
バスタイプ Uragan
フェーズステータス In Orbit
所有者/国 VVKOV/IACG/RU

Most Searched